Weather History for KAKR - January, 2014

Change the Weather History Date:

Tuesday, January 21, 2014

  Actual Average (KCAK) Record (KCAK)
Temperature  
Mean Temperature 11 °F 26 °F  
Max Temperature 19 °F 33 °F 69 °F (1906)
Min Temperature 3 °F 19 °F -24 °F (1985)
Degree Days  
Heating Degree Days 54 39  
Month to date heating degree days 817  
Since 1 July heating degree days 3147  
Cooling Degree Days 0 0  
Month to date cooling degree days 0  
Year to date cooling degree days 0  
Moisture  
Dew Point 4 °F    
Average Humidity 70    
Maximum Humidity 85    
Minimum Humidity 46    
Precipitation  
Precipitation 0.00 in 0.09 in 2.83 in (1959)
Month to date precipitation 1.80  
Year to date precipitation 1.80  
Snow  
Snow 0.00 in 0.40 in - ()
Month to date snowfall 8.4  
Since 1 July snowfall 22.0  
Snow Depth -    
Sea Level Pressure  
Sea Level Pressure 29.99 in    
Wind  
Wind Speed 11 mph (NNE)    
Max Wind Speed 22 mph    
Max Gust Speed 28 mph    
Visibility 8 miles    
Events Snow    
T = Trace of Precipitation, MM = Missing Value Source: NWS Daily Summary

Daily Weather History Graph

Daily Weather History Graph

Search for Another Location

Airport or City:

Trip Planner

Search our weather history database for the weather conditions in past years. The results will help you decide how hot, cold, wet, or windy it might be!

Date:

Astronomy

Jan. 21, 2014 Rise Set
Actual Time 7:45 AM EST 5:29 PM EST
Civil Twilight 7:15 AM EST 5:59 PM EST
Nautical Twilight 6:42 AM EST 6:32 PM EST
Astronomical Twilight 6:09 AM EST 7:05 PM EST
Moon 11:04 PM EST (1/21) 10:11 AM EST (1/21)
Length of Visible Light 10h 43m
Length of Day
9h 43m
Waning Gibbous, 75% of the Moon is Illuminated
Jan 21
Waning Gibbous
Jan 24
Last Quarter
Jan 30
New
Feb 6
First Quarter
Feb 14
Full

Hourly Weather History & Observations

Time (EST) Temp. Windchill Dew Point Humidity Pressure Visibility Wind Dir Wind Speed Gust Speed Precip Events Conditions
12:54 AM 19.0 °F 10.0 °F 12.0 °F 74% 29.95 in 10.0 mi ENE 6.9 mph - N/A   Overcast
1:54 AM 19.0 °F 10.0 °F 12.0 °F 74% 29.94 in 10.0 mi ENE 6.9 mph - N/A   Overcast
2:25 AM 17.6 °F 3.7 °F 12.2 °F 79% 29.89 in 10.0 mi NE 13.8 mph - N/A   Overcast
2:54 AM 17.1 °F 3.6 °F 10.9 °F 77% 29.94 in 10.0 mi ENE 12.7 mph 18.4 mph N/A   Overcast
3:47 AM 15.8 °F 3.4 °F 10.4 °F 79% 29.90 in 2.0 mi NE 10.4 mph - 0.00 in Snow Light Snow
3:54 AM 16.0 °F 2.3 °F 10.9 °F 81% 29.95 in 1.5 mi NE 12.7 mph - 0.00 in Snow Light Snow
4:29 AM 15.8 °F 2.7 °F 10.4 °F 79% 29.89 in 2.0 mi NE 11.5 mph - 0.00 in Snow Light Snow
4:45 AM 15.8 °F 2.1 °F 8.6 °F 73% 29.89 in 3.0 mi NE 12.7 mph - 0.00 in Snow Light Snow
4:54 AM 15.1 °F 0.5 °F 9.0 °F 77% 29.94 in 5.0 mi NE 13.8 mph - 0.00 in Snow Light Snow
5:54 AM 14.0 °F 1.2 °F 9.0 °F 80% 29.96 in 4.0 mi NNE 10.4 mph - 0.00 in Snow Light Snow
6:33 AM 14.0 °F 0.5 °F 8.6 °F 79% 29.92 in 2.5 mi NNE 11.5 mph - 0.00 in Snow Light Snow
6:51 AM 12.2 °F -1.0 °F 8.6 °F 85% 29.93 in 3.0 mi NNE 10.4 mph - 0.00 in Snow Light Snow
6:52 AM 12.9 °F 0.7 °F 8.1 °F 81% 29.98 in 4.0 mi NNE 9.2 mph - 0.00 in Snow Light Snow
7:54 AM 12.9 °F -0.9 °F 7.0 °F 77% 30.00 in 10.0 mi NNE 11.5 mph - 0.00 in   Overcast
8:54 AM 12.9 °F -3.9 °F 5.0 °F 71% 30.01 in 10.0 mi NNE 17.3 mph - N/A   Overcast
9:54 AM 12.9 °F -2.2 °F 3.9 °F 67% 30.02 in 10.0 mi NNE 13.8 mph 21.9 mph N/A   Overcast
10:54 AM 14.0 °F -2.0 °F 3.0 °F 62% 30.03 in 10.0 mi NNE 16.1 mph - N/A   Overcast
2:54 PM 12.9 °F -2.2 °F -2.0 °F 51% 29.97 in - North 13.8 mph - N/A   Unknown
3:54 PM 12.0 °F -6.9 °F -2.9 °F 51% 30.00 in 10.0 mi NNE 21.9 mph 25.3 mph N/A   Clear
4:54 PM 10.0 °F -7.6 °F -7.1 °F 46% 30.02 in 10.0 mi North 17.3 mph 27.6 mph N/A   Clear
5:54 PM 8.1 °F -10.7 °F -7.1 °F 50% 30.05 in 10.0 mi North 18.4 mph 21.9 mph N/A   Clear
6:54 PM 6.1 °F -10.2 °F -6.0 °F 58% 30.07 in 10.0 mi NNE 12.7 mph - N/A   Clear
7:54 PM 5.0 °F -6.9 °F -5.1 °F 63% 30.08 in 10.0 mi North 6.9 mph - N/A   Clear
8:54 PM 5.0 °F -8.1 °F -6.0 °F 61% 30.08 in 10.0 mi North 8.1 mph - N/A   Clear
9:54 PM 3.9 °F -6.9 °F -5.1 °F 66% 30.08 in 10.0 mi North 5.8 mph - N/A   Clear
10:54 PM 3.9 °F -8.2 °F -5.1 °F 66% 30.08 in 10.0 mi North 6.9 mph - N/A   Clear
11:54 PM 3.9 °F -5.3 °F -4.0 °F 70% 30.08 in 10.0 mi North 4.6 mph - N/A   Clear